map of LDB home
LDB - Airport
Location
City:  Londrina, Paraná, Brazil
ICAO:SBLO
IATA:LDB

Details
Type:Airport (Aerodrome, Airfield)
Use:Public/Civil
Latitude:23°20'01"S (-23.333624)
Longitude:51°07'48"W (-51.130071)
Datum:WGS 1984
Elevation:1867 ft (569 m)
Variation:19.00°W (WMM2015 magnetic declination)
-0.15° annual change
Runways:1
Longest:6890 × 148 ft (2100 × 45 m), paved

Time
Time Zone:UTC-3 (DST-2)
Local Time:

Weather
METAR:SBLO 241700Z 11007KT 9999 FEW045 25/15 Q1024
TAF:SBLO 241515Z 2418/2506 09006KT CAVOK TX25/2418Z TN15/2505Z
BECMG 2422/2424 12006KT
RMK PDV

Related Locations
Nearby:
Farthest:OKA: 12220 mi / 19667 km
Okinawa [Naha Airport / Naha AB], Ryukyu Island, 47, JP

Find:

   beyond  
but within

Other Information
Maps:
NOTAMs:
Links:
Sources:

  
flag of Brazil
flag of Paraná
  

Sectional Chart

Flight Planning
at skyvector.com

Satellite Image

Google Maps Satellite view

 

Copyright © 2004-2017 Karl L. Swartz. All rights reserved.
The Great Circle Mapper name and logo are trademarks of the Great Circle Mapper.
All other trademarks mentioned herein belong to their respective owners.
Please see credits for attibutions and further copyright information.

  Follow gcmap on Facebook Follow gcmap on Twitter Follow gcmap on Google+ GCmap on LinkedIn

hCard Microformat

Geo Microformat